Saint Johns, AZ

8:21 AM MST on February 09, 2016 (GMT -0700)
Saint Johns Industrial

Weather History for KSJN - March, 2014

Change the Weather History Date:

Saturday, March 29, 2014

  Actual Average (KSOW) Record (KSOW)
Temperature  
Mean Temperature 44 °F -  
Max Temperature 69 °F 56 °F 77 °F (1997)
Min Temperature 19 °F 36 °F 5 °F (1975)
Degree Days  
Heating Degree Days 21    
Moisture  
Dew Point 13 °F    
Average Humidity 25    
Maximum Humidity 56    
Minimum Humidity 8    
Precipitation  
Precipitation 0.00 in - - ()
Sea Level Pressure  
Sea Level Pressure 30.04 in    
Wind  
Wind Speed 5 mph (SW)    
Max Wind Speed 21 mph    
Max Gust Speed 24 mph    
Visibility 10 miles    
Events      
Averages and records for this station are not official NWS values.
T = Trace of Precipitation, MM = Missing Value Source: NWS Daily Summary

Daily Weather History Graph

Daily Weather History Graph

Search for Another Location

Airport or City:

Trip Planner

Search our weather history database for the weather conditions in past years. The results will help you decide how hot, cold, wet, or windy it might be!

Date:

Astronomy

Mar. 29, 2014 Rise Set
Actual Time 6:08 AM MST 6:36 PM MST
Civil Twilight 5:43 AM MST 7:01 PM MST
Nautical Twilight 5:13 AM MST 7:31 PM MST
Astronomical Twilight 4:43 AM MST 8:01 PM MST
Moon 5:16 AM MST (3/29) 5:46 PM MST (3/29)
Length of Visible Light 13h 18m
Length of Day
12h 27m
Waning Crescent, 1% of the Moon is Illuminated
Mar 29
Waning Crescent
Mar 30
New
Apr 7
First Quarter
Apr 15
Full
Apr 22
Last Quarter

Hourly Weather History & Observations

Time (MST) Temp. Windchill Dew Point Humidity Pressure Visibility Wind Dir Wind Speed Gust Speed Precip Events Conditions
12:54 AM 39.9 °F 35.8 °F 15.1 °F 36% 30.13 in 10.0 mi SSE 5.8 mph - N/A   Clear
1:54 AM 39.0 °F 36.8 °F 15.1 °F 38% 30.12 in 10.0 mi SE 3.5 mph - N/A   Clear
2:54 AM 35.1 °F 30.1 °F 14.0 °F 42% 30.13 in 10.0 mi South 5.8 mph - N/A   Clear
3:54 AM 34.0 °F 31.0 °F 15.1 °F 46% 30.13 in 10.0 mi SSE 3.5 mph - N/A   Clear
4:54 AM 30.0 °F - 12.9 °F 49% 30.15 in 10.0 mi Calm Calm - N/A   Clear
5:54 AM 28.9 °F - 12.9 °F 51% 30.17 in 10.0 mi Calm Calm - N/A   Clear
6:54 AM 33.1 °F - 15.1 °F 48% 30.19 in 10.0 mi Calm Calm - N/A   Clear
7:54 AM 39.9 °F - 16.0 °F 38% 30.19 in 10.0 mi Calm Calm - N/A   Clear
8:54 AM 46.9 °F - 15.1 °F 28% 30.17 in 10.0 mi Calm Calm - N/A   Clear
9:54 AM 55.9 °F - 16.0 °F 21% 30.12 in 10.0 mi Calm Calm - N/A   Clear
10:54 AM 61.0 °F - 15.1 °F 17% 30.09 in 10.0 mi WSW 3.5 mph - N/A   Clear
11:54 AM 64.0 °F - 12.0 °F 13% 30.04 in 10.0 mi Calm Calm - N/A   Clear
12:54 PM 66.9 °F - 10.0 °F 11% 29.99 in 10.0 mi West 10.4 mph - N/A   Clear
1:54 PM 69.1 °F - 12.0 °F 11% 29.96 in 10.0 mi WSW 13.8 mph 19.6 mph N/A   Clear
2:54 PM 72.0 °F - 10.0 °F 9% 29.92 in 10.0 mi WNW 12.7 mph - N/A   Clear
3:54 PM 72.0 °F - 8.1 °F 8% 29.90 in 10.0 mi NNW 15.0 mph 24.2 mph N/A   Clear
4:54 PM 70.0 °F - 7.0 °F 9% 29.92 in 10.0 mi NW 10.4 mph - N/A   Clear
5:54 PM 69.1 °F - 8.1 °F 9% 29.93 in 10.0 mi WSW 10.4 mph - N/A   Clear
6:54 PM 63.0 °F - 14.0 °F 15% 29.94 in 10.0 mi WSW 10.4 mph - N/A   Clear
7:54 PM 57.9 °F - 15.1 °F 19% 29.97 in 10.0 mi SW 9.2 mph - N/A   Clear
8:54 PM 55.0 °F - 14.0 °F 20% 29.97 in 10.0 mi Calm Calm - N/A   Clear
9:54 PM 54.0 °F - 12.0 °F 19% 29.94 in 10.0 mi SW 10.4 mph - N/A   Clear
10:54 PM 53.1 °F - 10.9 °F 19% 29.91 in 10.0 mi SSW 15.0 mph - N/A   Clear
11:54 PM 50.0 °F - 12.0 °F 22% 29.90 in 10.0 mi South 6.9 mph - N/A   Clear